, OR

(GMT )
Tillamook

Weather History for KTMK - October, 2012

Change the Weather History Date:

Tuesday, October 16, 2012

  Actual Average Record
Temperature  
Mean Temperature 54 °F -  
Max Temperature 62 °F - - ()
Min Temperature 46 °F - - ()
Degree Days  
Heating Degree Days 11    
Growing Degree Days 4 (Base 50)    
Moisture  
Dew Point 52 °F    
Average Humidity 87    
Maximum Humidity 100    
Minimum Humidity 55    
Precipitation  
Precipitation 0.06 in - - ()
Sea Level Pressure  
Sea Level Pressure 30.09 in    
Wind  
Wind Speed 6 mph (WSW)    
Max Wind Speed 14 mph    
Max Gust Speed 22 mph    
Visibility 10 miles    
Events      
Averages and records for this station are not official NWS values.
T = Trace of Precipitation, MM = Missing Value Source: NWS Daily Summary

Daily Weather History Graph

Daily Weather History Graph

Search for Another Location

Airport or City:

Trip Planner

Search our weather history database for the weather conditions in past years. The results will help you decide how hot, cold, wet, or windy it might be!

Date:

Astronomy

Oct. 16, 2012 Rise Set
Actual Time 8:33 AM MDT 7:27 PM MDT
Civil Twilight 8:03 AM MDT 7:56 PM MDT
Nautical Twilight 7:29 AM MDT 8:31 PM MDT
Astronomical Twilight 6:55 AM MDT 9:05 PM MDT
Moon 10:09 AM MDT (10/16) 8:08 PM MDT (10/16)
Length of Visible Light 11h 53m
Length of Day
10h 53m
New Moon, 2% of the Moon is Illuminated
Oct 16
New Moon
Oct 21
First Quarter
Oct 29
Full
Nov 6
Last Quarter
Nov 13
New

Hourly Weather History & Observations

Time (MDT) Temp. Dew Point Humidity Pressure Visibility Wind Dir Wind Speed Gust Speed Precip Events Conditions
12:15 AM 60.8 °F 60.8 °F 100% 29.73 in - SW 12.7 mph - 0.02 in   Overcast
12:35 AM 60.8 °F 60.8 °F 100% 29.75 in - West 11.5 mph 21.9 mph 0.03 in   Overcast
12:55 AM 60.8 °F 60.8 °F 100% 29.76 in - WSW 13.8 mph 19.6 mph 0.03 in   Overcast
1:15 AM 60.8 °F 60.8 °F 100% 29.77 in - West 9.2 mph 17.3 mph N/A   Overcast
1:35 AM 60.8 °F 60.8 °F 100% 29.78 in - WSW 12.7 mph - N/A   Unknown
1:55 AM 59.0 °F 59.0 °F 100% 29.79 in - West 8.1 mph - N/A   Unknown
2:15 AM 59.0 °F 59.0 °F 100% 29.81 in - WSW 9.2 mph - N/A   Unknown
2:35 AM 59.0 °F 59.0 °F 100% 29.81 in - WSW 10.4 mph - N/A   Unknown
2:55 AM 59.0 °F 57.2 °F 94% 29.83 in - West 9.2 mph - N/A   Unknown
3:15 AM 59.0 °F 57.2 °F 94% 29.84 in - West 5.8 mph - N/A   Unknown
3:35 AM 57.2 °F 55.4 °F 94% 29.85 in - West 4.6 mph - N/A   Unknown
3:55 AM 57.2 °F 55.4 °F 94% 29.86 in - SW 3.5 mph - N/A   Unknown
4:15 AM 57.2 °F 55.4 °F 94% 29.87 in - Calm Calm - N/A   Overcast
4:35 AM 57.2 °F 55.4 °F 94% 29.88 in - Calm Calm - N/A   Overcast
4:55 AM 57.2 °F 55.4 °F 94% 29.88 in - Calm Calm - N/A   Unknown
5:15 AM 57.2 °F 55.4 °F 94% 29.90 in - SW 4.6 mph - N/A   Overcast
5:35 AM 57.2 °F 55.4 °F 94% 29.92 in - NW 4.6 mph - 0.02 in   Unknown
6:15 AM 55.4 °F 53.6 °F 94% 29.94 in - Calm Calm - N/A   Unknown
6:35 AM 55.4 °F 53.6 °F 94% 29.95 in - Calm Calm - N/A   Unknown
6:55 AM 55.4 °F 53.6 °F 94% 29.96 in - SSW 3.5 mph - N/A   Unknown
7:15 AM 55.4 °F 53.6 °F 94% 29.98 in - Calm Calm - N/A   Overcast
7:35 AM 55.4 °F 53.6 °F 94% 29.99 in - Calm Calm - N/A   Unknown
7:55 AM 55.4 °F 53.6 °F 94% 30.00 in - Calm Calm - 0.01 in   Unknown
8:15 AM 55.4 °F 53.6 °F 94% 30.01 in - Calm Calm - N/A   Unknown
8:35 AM 55.4 °F 53.6 °F 94% 30.03 in - Calm Calm - N/A   Overcast
8:55 AM 55.4 °F 51.8 °F 88% 30.04 in - Calm Calm - N/A   Unknown
9:15 AM 53.6 °F 51.8 °F 94% 30.06 in - Calm Calm - N/A   Unknown
9:35 AM 53.6 °F 51.8 °F 94% 30.08 in - Calm Calm - N/A   Unknown
9:55 AM 53.6 °F 51.8 °F 94% 30.09 in - SSE 3.5 mph - N/A   Unknown
10:15 AM 53.6 °F 53.6 °F 100% 30.10 in - SSE 4.6 mph - N/A   Unknown
10:35 AM 55.4 °F 53.6 °F 94% 30.12 in - SSE 4.6 mph - N/A   Overcast
10:55 AM 55.4 °F 53.6 °F 94% 30.13 in - Calm Calm - N/A   Overcast
11:15 AM 55.4 °F 51.8 °F 88% 30.14 in - SE 4.6 mph - N/A   Unknown
11:35 AM 57.2 °F 51.8 °F 82% 30.16 in - SE 3.5 mph - N/A   Unknown
11:55 AM 59.0 °F 48.2 °F 67% 30.17 in - WNW 9.2 mph - N/A   Overcast
12:15 PM 59.0 °F 48.2 °F 67% 30.18 in - WNW 5.8 mph - N/A   Overcast
12:35 PM 57.2 °F 46.4 °F 67% 30.19 in - WSW 8.1 mph - N/A   Overcast
12:55 PM 57.2 °F 48.2 °F 72% 30.19 in 10.0 mi WSW 4.6 mph - N/A   Overcast
1:15 PM 59.0 °F 48.2 °F 67% 30.20 in 10.0 mi SW 3.5 mph - N/A   Scattered Clouds
1:35 PM 60.8 °F 46.4 °F 59% 30.21 in 10.0 mi Calm Calm - N/A   Mostly Cloudy
1:55 PM 60.8 °F 46.4 °F 59% 30.21 in 10.0 mi NW 9.2 mph - N/A   Mostly Cloudy
2:15 PM 59.0 °F 46.4 °F 63% 30.21 in 10.0 mi NW 9.2 mph - N/A   Overcast
2:35 PM 59.0 °F 46.4 °F 63% 30.21 in 10.0 mi NNW 10.4 mph - N/A   Overcast
2:55 PM 60.8 °F 46.4 °F 59% 30.21 in 10.0 mi NNW 9.2 mph - N/A   Mostly Cloudy
3:15 PM 62.6 °F 46.4 °F 55% 30.21 in - WNW 4.6 mph - N/A   Overcast
3:35 PM 62.6 °F 48.2 °F 59% 30.21 in - WSW 10.4 mph - N/A   Overcast
3:55 PM 62.6 °F 46.4 °F 55% 30.22 in - West 9.2 mph - N/A   Mostly Cloudy
4:15 PM 60.8 °F 46.4 °F 59% 30.22 in - WSW 11.5 mph - N/A   Mostly Cloudy
4:35 PM 60.8 °F 46.4 °F 59% 30.23 in - West 8.1 mph - N/A   Scattered Clouds
6:15 PM 59.0 °F 50.0 °F 72% 30.25 in - SW 5.8 mph - N/A   Unknown
6:35 PM 57.2 °F 50.0 °F 77% 30.25 in - SSW 4.6 mph - N/A   Unknown
6:55 PM 55.4 °F 50.0 °F 82% 30.26 in - WNW 9.2 mph 16.1 mph N/A   Overcast
7:15 PM 55.4 °F 50.0 °F 82% 30.26 in - NNW 3.5 mph - N/A   Overcast
7:35 PM 55.4 °F 50.0 °F 82% 30.27 in - Calm Calm - N/A   Overcast
7:55 PM 55.4 °F 50.0 °F 82% 30.27 in - Calm Calm - N/A   Overcast
8:15 PM 53.6 °F 51.8 °F 94% 30.27 in - Calm Calm - N/A   Overcast
8:35 PM 53.6 °F 51.8 °F 94% 30.28 in - Calm Calm - N/A   Unknown
8:55 PM 53.6 °F 51.8 °F 94% 30.29 in - Calm Calm - N/A   Overcast
9:35 PM 51.8 °F 51.8 °F 100% 30.29 in - Calm Calm - N/A   Overcast
9:55 PM 51.8 °F 50.0 °F 94% 30.29 in - Calm Calm - N/A   Overcast
10:15 PM 50.0 °F 50.0 °F 100% 30.29 in - Calm Calm - N/A   Unknown
10:35 PM 50.0 °F 50.0 °F 100% 30.29 in - Calm Calm - N/A   Unknown
10:55 PM 48.2 °F 48.2 °F 100% 30.30 in - Calm Calm - N/A   Mostly Cloudy
11:15 PM 48.2 °F 48.2 °F 100% 30.30 in - Calm Calm - N/A   Unknown
11:35 PM 46.4 °F 46.4 °F 100% 30.30 in - Calm Calm - N/A   Unknown
11:55 PM 46.4 °F 46.4 °F 100% 30.32 in - Calm Calm - N/A   Unknown